Regional Weather Roundup
Issued by NWS

Home | Current Version | Previous Version | Graphics & Text | Print | Product List | Glossary On
Versions: 1 2 3 4 5 6 7 8 9 10 11 12 13 14 15 16 17 18 19 20 21 22 23 24 25 26 27 28 29 30 31 32 33 34 35 36 37 38 39 40 41 42 43 44 45 46 47 48 49 50
000
ASUS43 KFSD 030702
RWRSD

WEATHER ROUNDUP FOR SOUTH DAKOTA
NATIONAL WEATHER SERVICE SIOUX FALLS SD
200 AM CDT TUE MAY 03 2016

NOTE: "FAIR" INDICATES FEW OR NO CLOUDS BELOW 12,000 FEET WITH NO
SIGNIFICANT WEATHER AND/OR OBSTRUCTIONS TO VISIBILITY.


SDZ001>005-009-010-012>017-030800-
NORTHWEST AND NORTH CENTRAL SOUTH DAKOTA

CITY           SKY/WX    TMP DP  RH WIND       PRES   REMARKS
BUFFALO          N/A     42  32  67 W6        30.00S
FAITH            N/A     44  40  85 SW6       30.04S
MOBRIDGE       CLEAR     40  39  97 CALM      29.99S
$$

SDZ012>016-024>037-041>051-057-063-072>074-030800-
SOUTHWEST AND SOUTH CENTRAL SOUTH DAKOTA

CITY           SKY/WX    TMP DP  RH WIND       PRES   REMARKS
RAPID CTY ARPT CLEAR     43  36  76 NW10      30.07R
PIERRE         CLEAR     43  40  89 SW5       30.04R
CUSTER         PTCLDY    40  28  62 NW5       30.11S
PHILIP         FOG       35  35 100 CALM      30.06R VSB 1/4
PINE RIDGE     CLEAR     35  33  92 CALM      30.06R
WINNER         FAIR      43  39  86 SW6       30.04F
$$

SDZ004>011-016>023-039-040-030800-
NORTHEAST SOUTH DAKOTA

CITY           SKY/WX    TMP DP  RH WIND       PRES   REMARKS
ABERDEEN       CLEAR     38  34  85 CALM      30.02S
WATERTOWN      CLEAR     43  38  82 CALM      30.01S
BROOKINGS      CLEAR     45  40  82 CALM      30.01F
SISSETON         N/A     44  37  76 CALM      29.99S
$$

SDZ017-020-022-023-036>040-048>070-030800-
SOUTHEAST SOUTH DAKOTA

CITY           SKY/WX    TMP DP  RH WIND       PRES   REMARKS
SIOUX FALLS    CLEAR     41  38  89 CALM      30.03F
HURON          CLEAR     42  41  96 CALM      30.02S
MITCHELL       CLEAR     46  44  93 S6        30.03F
YANKTON        PTCLDY    46  39  76 CALM      30.02F
$$

ABBREVIATIONS USED IN REMARKS
   TC - TEMPERATURE IN CELSIUS
  WCI - WIND CHILL INDEX
   HX - HEAT INDEX
  VSB - VISIBILITY





USA.gov is the U.S. government's official web portal to all federal, state and local government web resources and services.